(360566) = 2003 UX46

Discovered at Kitt Peak on 2003-10-19 by Spacewatch.

Orbit

Orbit type: Main Belt

Note: WebGL enabled browser required.

epoch2023-09-13.0
epoch JD2460200.5
perihelion date2024-07-12.52490
perihelion JD2460504.02490
argument of perihelion (°)197.03565
ascending node (°)220.17963
inclination (°)4.35616
eccentricity0.2691528
perihelion distance (AU)1.8755294
Tisserand w.r.t. Jupiter3.4
ΔV w.r.t. Earth (km/sec)8.7
semimajor axis (AU)2.5662401
mean anomaly (°)287.23002
mean daily motion (°/day)0.23974960
aphelion distance (AU)3.257
period (years)4.11
P-vector [x]0.54203000
P-vector [y]0.77959566
P-vector [z]0.31374208
Q-vector [x]-0.83892902
Q-vector [y]0.52375357
Q-vector [z]0.14791988
absolute magnitude17.49
phase slope0.15
uncertainty0
referenceMPEC 2023-O65
observations used215
oppositions10
arc length (days)7217
first opposition used2003
last opposition used2023
residual rms (arc-secs)0.73
perturbers coarse indicatorM-v
perturbers precise indicator003Ek
first observation date used2003-10-19.0
last observation date used2023-07-23.0
computer nameMPCLINUX
Minimum Orbit Intersection Distances (in AU)
for orbit epoch: 2460200.5, reference: E2023-O65
Mercury1.56358
Venus1.15349
Earth0.88691
Mars0.37364
Jupiter2.10558
Saturn6.67115
Uranus15.5105
Neptune27.3612

Observations

218 total observations over interval: 2003 10 19.38916 – 2023 07 23.442817
These data are available for download (format description).

Date (UT) J2000 RA J2000 Dec Magn Location Ref
2003 10 19.38916 02 56 45.25 +17 30 40.3 19.5 V 291 – LPL/Spacewatch II MPS 89630
2003 10 19.42002 02 56 44.20 +17 30 29.2 19.6 V 291 – LPL/Spacewatch II MPS 89630
2003 10 19.45089 02 56 43.17 +17 30 18.0 19.6 V 291 – LPL/Spacewatch II MPS 89630
2003 10 20.44060 02 56 12.21 +17 24 20.5 19.2   644 – Palomar Mountain/NEAT MPS 89630
2003 10 20.45229 02 56 11.79 +17 24 16.2 19.1   644 – Palomar Mountain/NEAT MPS 89630
2003 10 20.46664 02 56 11.28 +17 24 11.0 19.3   644 – Palomar Mountain/NEAT MPS 89630
2003 10 22.43911 02 55 04.91 +17 11 50.4 19.5 V 691 – Steward Observatory, Kitt Peak-Spacewatch MPS 89630
2003 10 22.46550 02 55 03.92 +17 11 40.0 19.6 V 691 – Steward Observatory, Kitt Peak-Spacewatch MPS 89630
2003 10 22.49225 02 55 02.90 +17 11 29.7 19.6 V 691 – Steward Observatory, Kitt Peak-Spacewatch MPS 89630
2003 10 23.28814 02 54 35.07 +17 06 20.5 19.0 R 699 – Lowell Observatory-LONEOS MPS 89630
2003 10 23.32368 02 54 33.74 +17 06 07.7   699 – Lowell Observatory-LONEOS MPS 89630
2003 10 23.34368 02 54 32.98 +17 05 58.5   699 – Lowell Observatory-LONEOS MPS 89630
2003 10 23.36370 02 54 32.16 +17 05 51.0   699 – Lowell Observatory-LONEOS MPS 89630
2003 10 23.85984 02 54 14.20 +17 02 30.8 19.0 V 049 – Uppsala-Kvistaberg MPS 89630
2003 10 23.87261 02 54 13.71 +17 02 26.7 18.6 V 049 – Uppsala-Kvistaberg MPS 89630
2003 10 23.88546 02 54 13.19 +17 02 22.0 18.9 V 049 – Uppsala-Kvistaberg MPS 89630
2003 10 28.26393 02 51 19.86 +16 32 13.6 19.1   704 – Lincoln Laboratory ETS, New Mexico MPS 89630
2003 10 28.27927 02 51 19.17 +16 32 07.3 19.5   704 – Lincoln Laboratory ETS, New Mexico MPS 89630
2003 10 28.29162 02 51 18.64 +16 32 02.0 19.5   704 – Lincoln Laboratory ETS, New Mexico MPS 89630
2003 10 28.30401 02 51 18.06 +16 31 56.7 19.1   704 – Lincoln Laboratory ETS, New Mexico MPS 89630
2003 10 28.31659 02 51 17.47 +16 31 48.7 19.1   704 – Lincoln Laboratory ETS, New Mexico MPS 89630
2003 10 29.27001 02 50 37.41 +16 24 59.3 19.0 V 703 – Catalina Sky Survey MPS 89630
2003 10 29.27676 02 50 37.02 +16 24 56.0 18.9 V 703 – Catalina Sky Survey MPS 89630
2003 10 29.28352 02 50 36.77 +16 24 53.7 19.3 V 703 – Catalina Sky Survey MPS 89630
2003 10 29.29027 02 50 36.43 +16 24 50.2 18.8 V 703 – Catalina Sky Survey MPS 89630
2003 11 01.26457 02 48 26.40 +16 02 56.1 18.9   704 – Lincoln Laboratory ETS, New Mexico MPS 90589
2003 11 01.27756 02 48 25.84 +16 02 49.0 18.7   704 – Lincoln Laboratory ETS, New Mexico MPS 90589
2003 11 01.29092 02 48 25.19 +16 02 44.3 19.6   704 – Lincoln Laboratory ETS, New Mexico MPS 90589
2003 11 01.30328 02 48 24.57 +16 02 38.1 19.3   704 – Lincoln Laboratory ETS, New Mexico MPS 90589
2003 11 01.31554 02 48 23.99 +16 02 33.0 19.2   704 – Lincoln Laboratory ETS, New Mexico MPS 90589
2003 11 18.22319 02 36 00.06 +13 56 05.3 19.4 V 703 – Catalina Sky Survey MPS 91045
2003 11 18.23442 02 35 59.69 +13 56 00.3 19.6 V 703 – Catalina Sky Survey MPS 91045
2003 11 18.23867 02 35 59.54 +13 55 58.6 18.8   644 – Palomar Mountain/NEAT MPS 91045
2003 11 18.24564 02 35 59.17 +13 55 55.4 19.0 V 703 – Catalina Sky Survey MPS 91045
2003 11 18.25690 02 35 58.81 +13 55 50.3 19.8 V 703 – Catalina Sky Survey MPS 91045
2003 11 18.26086 02 35 58.60 +13 55 49.5 18.9   644 – Palomar Mountain/NEAT MPS 91045
2003 11 18.28065 02 35 57.75 +13 55 41.3 18.9   644 – Palomar Mountain/NEAT MPS 91045
2003 11 20.16999 02 34 46.99 +13 42 45.6 19.5 V 691 – Steward Observatory, Kitt Peak-Spacewatch MPS 91045
2003 11 20.19869 02 34 45.85 +13 42 34.1 19.6 V 691 – Steward Observatory, Kitt Peak-Spacewatch MPS 91045
2003 11 20.22589 02 34 44.77 +13 42 23.3 20.0 V 691 – Steward Observatory, Kitt Peak-Spacewatch MPS 91045
2003 11 21.20276 02 34 09.84 +13 35 54.2 19.7   704 – Lincoln Laboratory ETS, New Mexico MPS 91045
2003 11 21.21583 02 34 09.45 +13 35 51.2 20.0   704 – Lincoln Laboratory ETS, New Mexico MPS 91045
2003 11 21.22895 02 34 08.83 +13 35 45.1 20.1   704 – Lincoln Laboratory ETS, New Mexico MPS 91045
2003 11 21.24192 02 34 08.33 +13 35 39.0 20.1   704 – Lincoln Laboratory ETS, New Mexico MPS 91045
2003 11 21.25472 02 34 07.82 +13 35 33.4 20.0   704 – Lincoln Laboratory ETS, New Mexico MPS 91045
2003 11 21.26497 02 34 07.50 +13 35 28.9 19.2 R 699 – Lowell Observatory-LONEOS MPS 92763
2003 11 21.27810 02 34 07.03 +13 35 23.9   699 – Lowell Observatory-LONEOS MPS 92763
2003 11 21.29127 02 34 06.66 +13 35 18.0   699 – Lowell Observatory-LONEOS MPS 92763
2003 11 21.30447 02 34 06.00 +13 35 14.2   699 – Lowell Observatory-LONEOS MPS 92763
2007 09 15.45038 00 53 08.36 +10 50 22.4   691 – Steward Observatory, Kitt Peak-Spacewatch MPS 218080
2007 09 15.46802 00 53 07.79 +10 50 17.9   691 – Steward Observatory, Kitt Peak-Spacewatch MPS 218080
2007 09 15.48566 00 53 07.28 +10 50 13.3   691 – Steward Observatory, Kitt Peak-Spacewatch MPS 218080
2007 09 19.46379 00 51 02.73 +10 31 38.3 19.6 V 691 – Steward Observatory, Kitt Peak-Spacewatch MPS 218080
2007 09 19.47892 00 51 02.19 +10 31 33.5 19.6 V 691 – Steward Observatory, Kitt Peak-Spacewatch MPS 218080
2007 09 19.49406 00 51 01.72 +10 31 27.7 19.4 V 691 – Steward Observatory, Kitt Peak-Spacewatch MPS 218080
2007 09 22.02669 00 49 31.82 +10 17 44.4 19.1 R A39 – Altenburg MPS 218080
2007 09 22.03291 00 49 31.58 +10 17 41.9 19.3 R A39 – Altenburg MPS 218080
2007 09 22.03602 00 49 31.46 +10 17 40.7 19.3 R A39 – Altenburg MPS 218080
2007 09 22.03913 00 49 31.34 +10 17 39.4 19.1 R A39 – Altenburg MPS 218080
2007 09 22.04535 00 49 31.09 +10 17 37.4 19.0 R A39 – Altenburg MPS 218080
2007 09 22.28929 00 49 22.17 +10 16 17.3 19.7   704 – Lincoln Laboratory ETS, New Mexico MPS 244641
2007 09 22.30139 00 49 21.73 +10 16 12.8 20.1   704 – Lincoln Laboratory ETS, New Mexico MPS 244641
2007 09 22.31360 00 49 21.22 +10 16 08.7 19.9   704 – Lincoln Laboratory ETS, New Mexico MPS 244641
2007 09 22.32567 00 49 20.74 +10 16 04.7 20.0   704 – Lincoln Laboratory ETS, New Mexico MPS 244641
2007 09 22.33775 00 49 20.18 +10 16 00.0 20.0   704 – Lincoln Laboratory ETS, New Mexico MPS 244641
2007 09 24.41840 00 47 59.82 +10 03 34.2 19.6 V 691 – Steward Observatory, Kitt Peak-Spacewatch MPS 218080
2007 09 24.43603 00 47 59.11 +10 03 27.8 19.3 V 691 – Steward Observatory, Kitt Peak-Spacewatch MPS 218080
2007 09 24.45367 00 47 58.37 +10 03 21.4 19.8 V 691 – Steward Observatory, Kitt Peak-Spacewatch MPS 218080
2007 10 07.32210 00 38 33.21 +08 30 04.9 19.6 V 703 – Catalina Sky Survey MPS 218595
2007 10 07.32640 00 38 33.07 +08 30 01.8 19.2 V 703 – Catalina Sky Survey MPS 218595
2007 10 07.33075 00 38 32.82 +08 29 59.5 19.0 V 703 – Catalina Sky Survey MPS 218595
2007 10 07.33507 00 38 32.64 +08 29 58.2 18.8 V 703 – Catalina Sky Survey MPS 218595
2007 10 09.20580 00 37 07.11 +08 14 45.1 19.4   704 – Lincoln Laboratory ETS, New Mexico MPS 218595
2007 10 09.21673 00 37 06.51 +08 14 39.2 19.8   704 – Lincoln Laboratory ETS, New Mexico MPS 218595
2007 10 09.22765 00 37 05.99 +08 14 33.9 19.9   704 – Lincoln Laboratory ETS, New Mexico MPS 218595
2007 10 09.23862 00 37 05.42 +08 14 28.2 19.8   704 – Lincoln Laboratory ETS, New Mexico MPS 218595
2007 10 09.24972 00 37 04.95 +08 14 23.0 19.9   704 – Lincoln Laboratory ETS, New Mexico MPS 218595
2007 10 09.29290 00 37 02.89 +08 14 01.2 19.0 r 699 – Lowell Observatory-LONEOS MPS 218595
2007 10 09.31483 00 37 01.75 +08 13 50.3   699 – Lowell Observatory-LONEOS MPS 218595
2007 10 09.33678 00 37 00.66 +08 13 38.8   699 – Lowell Observatory-LONEOS MPS 218595
2007 10 09.35872 00 36 59.64 +08 13 28.4   699 – Lowell Observatory-LONEOS MPS 218595
2007 10 12.20234 00 34 51.41 +07 49 58.1 19.5   704 – Lincoln Laboratory ETS, New Mexico MPS 220424
2007 10 12.21337 00 34 50.88 +07 49 52.8 19.9   704 – Lincoln Laboratory ETS, New Mexico MPS 220424
2007 10 12.22441 00 34 50.42 +07 49 47.8 20.0   704 – Lincoln Laboratory ETS, New Mexico MPS 220424
2007 10 12.23567 00 34 49.85 +07 49 41.5 19.9   704 – Lincoln Laboratory ETS, New Mexico MPS 220424
2007 10 12.24672 00 34 49.32 +07 49 36.0 20.1   704 – Lincoln Laboratory ETS, New Mexico MPS 220424
2007 10 13.24546 00 34 05.08 +07 41 17.8 19.1 V 703 – Catalina Sky Survey MPS 220424
2007 10 13.25255 00 34 04.69 +07 41 13.5 19.6 V 703 – Catalina Sky Survey MPS 220424
2007 10 13.25964 00 34 04.40 +07 41 11.0 19.0 V 703 – Catalina Sky Survey MPS 220424
2007 10 13.26677 00 34 04.00 +07 41 07.2 19.4 V 703 – Catalina Sky Survey MPS 220424
2007 10 14.28644 00 33 19.40 +07 32 37.4 19.2 V G96 – Mt. Lemmon Survey MPS 220424
